Date String (YYYY-MM-DD hh:mm:ss) UTC,Instrument flags,Ambient pressure (hPa),Sample flow (lpm),Bypass flow (lpm),Sample temperature (°C),Ambient temperature (°C),ASC tube jacket temperature (°C),LED temperature (°C),Box temperature (°C),Sample RH (%),Span deviation,Mass concentration (μg/m³),Mass concentration (μg/m³),Mass concentration (μg/m³)
DateTimeUTC,F1_M11,P_M11,Q1_M11,Q2_M11,T1_M11,T2_M11,T3_M11,T4_M11,T5_M11,U1_M11,ZSPAN_M11,X0_M11,X2_M11,X1_M11
2022-12-27 00:00:00,,0826.5,4.99,0.00,24.9,23.4,00.0,33.8,26.7,15.5,0000.0,0009.13,0006.81,0006.48
2022-12-27 00:01:00,,0826.5,5.00,0.00,24.9,23.4,00.0,33.8,26.7,15.4,0000.0,0009.12,0006.85,0006.54
2022-12-27 00:02:00,,0826.5,4.97,0.00,24.9,23.4,00.0,33.8,26.7,15.4,0000.0,0009.18,0006.90,0006.59
2022-12-27 00:03:00,,0826.5,4.99,0.00,24.9,23.4,00.0,33.8,26.7,15.5,0000.0,0009.30,0006.94,0006.62
2022-12-27 00:04:00,,0826.5,5.04,0.00,24.9,23.5,00.0,33.8,26.7,15.6,0000.0,0009.57,0006.98,0006.66
2022-12-27 00:05:00,,0826.5,5.01,0.00,24.9,23.4,00.0,33.8,26.7,16.0,0000.0,0009.87,0007.01,0006.67
2022-12-27 00:06:00,,0826.5,4.99,0.00,24.9,23.4,00.0,33.8,26.6,16.3,0000.0,0010.14,0007.01,0006.67
2022-12-27 00:07:00,,0826.6,4.96,0.00,24.8,23.3,00.0,33.8,26.6,16.3,0000.0,0010.30,0007.01,0006.66
2022-12-27 00:08:00,,0826.5,5.02,0.00,24.8,23.2,00.0,33.8,26.6,16.2,0000.0,0010.38,0007.00,0006.65
2022-12-27 00:09:00,,0826.5,5.02,0.00,24.8,23.2,00.0,33.8,26.6,16.2,0000.0,0010.30,0006.98,0006.65
2022-12-27 00:10:00,,0826.5,5.03,0.00,24.8,23.3,00.0,33.7,26.6,16.2,0000.0,0010.39,0006.97,0006.66
2022-12-27 00:11:00,,0826.5,5.00,0.00,24.8,23.3,00.0,33.7,26.6,16.2,0000.0,0010.65,0006.99,0006.66
2022-12-27 00:12:00,,0826.5,4.98,0.00,24.8,23.4,00.0,33.7,26.6,16.3,0000.0,0010.65,0006.98,0006.66
2022-12-27 00:13:00,,0826.5,4.98,0.00,24.8,23.4,00.0,33.7,26.6,16.4,0000.0,0010.56,0006.97,0006.64
2022-12-27 00:14:00,,0826.5,5.01,0.00,24.8,23.4,00.0,33.7,26.6,16.5,0000.0,0010.43,0006.97,0006.66
2022-12-27 00:15:00,,0826.5,5.02,0.00,24.8,23.4,00.0,33.7,26.6,16.5,0000.0,0010.20,0006.95,0006.66
2022-12-27 00:16:00,,0826.5,5.00,0.00,24.8,23.4,00.0,33.7,26.6,16.6,0000.0,0009.97,0006.95,0006.66
2022-12-27 00:17:00,,0826.5,4.98,0.00,24.8,23.5,00.0,33.7,26.6,16.6,0000.0,0009.51,0006.95,0006.67
2022-12-27 00:18:00,,0826.5,4.97,0.00,24.8,23.5,00.0,33.7,26.6,16.6,0000.0,0009.32,0006.94,0006.65
2022-12-27 00:19:00,,0826.3,5.01,0.00,24.8,23.5,00.0,33.7,26.6,16.5,0000.0,0009.35,0006.92,0006.64
2022-12-27 00:20:00,,0826.3,5.03,0.00,24.8,23.4,00.0,33.7,26.6,16.4,0000.0,0009.31,0006.92,0006.64
2022-12-27 00:21:00,,0826.2,5.01,0.00,24.8,23.4,00.0,33.7,26.6,16.4,0000.0,0009.21,0006.93,0006.63
2022-12-27 00:22:00,,0826.2,5.01,0.00,24.8,23.4,00.0,33.7,26.6,16.4,0000.0,0008.92,0006.91,0006.62
2022-12-27 00:23:00,,0826.2,4.99,0.00,24.8,23.3,00.0,33.7,26.6,16.5,0000.0,0008.98,0006.92,0006.62
2022-12-27 00:24:00,,0826.2,4.97,0.00,24.7,23.2,00.0,33.7,26.6,16.5,0000.0,0009.00,0006.91,0006.61
2022-12-27 00:25:00,,0826.1,4.98,0.00,24.7,23.2,00.0,33.7,26.6,16.6,0000.0,0009.02,0006.88,0006.57
2022-12-27 00:26:00,,0826.1,5.02,0.00,24.7,23.1,00.0,33.6,26.5,16.7,0000.0,0009.35,0006.84,0006.51
2022-12-27 00:27:00,,0826.2,4.99,0.00,24.7,23.1,00.0,33.6,26.5,16.7,0000.0,0009.23,0006.78,0006.46
2022-12-27 00:28:00,,0826.2,5.03,0.00,24.7,23.2,00.0,33.6,26.5,16.8,0000.0,0009.09,0006.70,0006.40
2022-12-27 00:29:00,,0826.2,5.02,0.00,24.7,23.1,00.0,33.6,26.5,16.8,0000.0,0009.06,0006.64,0006.35
2022-12-27 00:30:00,,0826.2,4.99,0.00,24.7,23.1,00.0,33.6,26.5,16.8,0000.0,0008.99,0006.56,0006.29
2022-12-27 00:31:00,,0826.2,4.98,0.00,24.7,23.1,00.0,33.6,26.5,16.9,0000.0,0008.93,0006.48,0006.22
2022-12-27 00:32:00,,0826.2,4.98,0.00,24.7,23.1,00.0,33.6,26.5,16.9,0000.0,0008.80,0006.41,0006.16
2022-12-27 00:33:00,,0826.1,4.98,0.00,24.6,23.1,00.0,33.6,26.4,16.9,0000.0,0008.69,0006.34,0006.10
2022-12-27 00:34:00,,0826.2,4.98,0.00,24.6,23.2,00.0,33.6,26.5,16.9,0000.0,0008.85,0006.29,0006.06
2022-12-27 00:35:00,,0826.1,5.04,0.00,24.6,23.2,00.0,33.6,26.5,16.9,0000.0,0008.72,0006.22,0006.02
2022-12-27 00:36:00,,0826.2,5.03,0.00,24.6,23.2,00.0,33.6,26.4,17.0,0000.0,0008.62,0006.16,0005.97
2022-12-27 00:37:00,,0826.1,5.00,0.00,24.6,23.2,00.0,33.5,26.4,16.9,0000.0,0008.28,0006.11,0005.95
2022-12-27 00:38:00,,0826.0,4.98,0.00,24.6,23.2,00.0,33.5,26.4,16.9,0000.0,0008.27,0006.09,0005.94
2022-12-27 00:39:00,,0826.1,4.98,0.00,24.6,23.2,00.0,33.5,26.4,17.0,0000.0,0008.24,0006.06,0005.90
2022-12-27 00:40:00,,0826.2,5.00,0.00,24.6,23.1,00.0,33.5,26.4,17.0,0000.0,0008.09,0006.01,0005.87
2022-12-27 00:41:00,,0826.1,5.00,0.00,24.6,23.2,00.0,33.5,26.4,16.6,0000.0,0007.92,0005.95,0005.80
2022-12-27 00:42:00,,0826.2,5.02,0.00,24.6,23.2,00.0,33.5,26.4,16.4,0000.0,0007.79,0005.85,0005.69
2022-12-27 00:43:00,,0826.2,5.01,0.00,24.6,23.2,00.0,33.5,26.4,16.6,0000.0,0007.80,0005.78,0005.64
2022-12-27 00:44:00,,0826.2,4.99,0.00,24.6,23.2,00.0,33.5,26.4,16.8,0000.0,0007.85,0005.74,0005.61
2022-12-27 00:45:00,,0826.2,4.97,0.00,24.6,23.2,00.0,33.5,26.4,16.6,0000.0,0007.49,0005.66,0005.54
2022-12-27 00:46:00,,0826.2,4.99,0.00,24.6,23.2,00.0,33.5,26.4,16.8,0000.0,0007.51,0005.65,0005.51
2022-12-27 00:47:00,,0826.2,4.99,0.00,24.6,23.2,00.0,33.5,26.4,16.4,0000.0,0007.40,0005.58,0005.45
2022-12-27 00:48:00,,0826.2,5.01,0.00,24.6,23.2,00.0,33.5,26.4,16.1,0000.0,0007.22,0005.48,0005.33
2022-12-27 00:49:00,,0826.2,5.02,0.00,24.5,23.0,00.0,33.5,26.3,16.5,0000.0,0007.11,0005.43,0005.27
2022-12-27 00:50:00,,0826.2,4.98,0.00,24.5,22.8,00.0,33.5,26.2,16.5,0000.0,0007.27,0005.41,0005.23
2022-12-27 00:51:00,,0826.2,4.98,0.00,24.4,22.6,00.0,33.4,26.2,16.6,0000.0,0007.66,0005.39,0005.21
2022-12-27 00:52:00,,0826.2,5.01,0.00,24.4,22.4,00.0,33.4,26.1,16.5,0000.0,0007.72,0005.41,0005.22
2022-12-27 00:53:00,,0826.2,5.03,0.00,24.3,22.2,00.0,33.4,25.9,16.6,0000.0,0007.78,0005.46,0005.26
2022-12-27 00:54:00,,0826.2,4.97,0.00,24.3,22.1,00.0,33.4,25.9,16.7,0000.0,0007.86,0005.49,0005.25
2022-12-27 00:55:00,,0826.1,5.01,0.00,24.2,22.1,00.0,33.3,25.9,16.7,0000.0,0007.84,0005.50,0005.23
2022-12-27 00:56:00,,0826.2,4.96,0.00,24.2,22.0,00.0,33.3,25.8,16.9,0000.0,0007.91,0005.54,0005.25
2022-12-27 00:57:00,,0826.2,4.98,0.00,24.1,21.9,00.0,33.3,25.6,17.0,0000.0,0007.94,0005.54,0005.26
2022-12-27 00:58:00,,0826.2,4.97,0.00,24.1,21.7,00.0,33.2,25.5,17.2,0000.0,0008.05,0005.58,0005.29
2022-12-27 00:59:00,,0826.1,5.01,0.00,24.0,21.6,00.0,33.2,25.5,17.1,0000.0,0008.15,0005.66,0005.37
